Location: Unspecified
(0.0000°N, 0.0000°E)
Time: 05:31:28
(UTC+00:00)

Altair - Pass Details

Date: 21 July 2024
Orbit: 1501 x 1682 km, 47.2° (Epoch: 26 April)

Event Time Altitude Azimuth Distance (km) Brightness Sun altitude
Rises 14:39:25 0° 222° (SW) 4,898 10.2 47.5°
Reaches altitude 10° 14:42:36 10° 222° (SW) 3,892 9.9 46.8°
Maximum altitude 14:52:34 82° 309° (NW) 1,620 8.7 44.6°
Drops below altitude 10° 15:02:06 10° 36° (NE) 3,741 9.6 42.5°
Sets 15:05:07 0° 38° (NE) 4,701 10.0 41.9°
